User: anonymous   Login
Location: Caltech
(34.1382°N, 118.1253°W)
Time: 15:04:00
(UTC-07:00)
Language:

ADEOS II - Orbit

View from above orbital plane
View from above orbital plane
View from above satellite
View from above satellite

Ground track
Ground track

The orbit data is extracted from the following two-line orbital elements,

1 27597U 02056A   17290.03039109  .00000074  00000-0  47356-4 0  9997
2 27597  98.3852 254.5073 0001238  35.6513 324.4751 14.27310879772802
Epoch (UTC): 17 October 2017 00:43:45
Eccentricity: 0.0001238
inclination: 98.3852°
perigee height: 800 km
apogee height: 801 km
right ascension of ascending node: 254.5073°
argument of perigee: 35.6513°
revolutions per day: 14.27310879
mean anomaly at epoch: 324.4751°
orbit number at epoch: 77280

The dashed part of the orbit path shows where the satellite is in the earth's shadow,  

DLR